Weather History for KGUY - December, 2013

Change the Weather History Date:

Monday, December 2, 2013

  Actual Average Record
Temperature  
Mean Temperature 50 °F 38 °F  
Max Temperature 68 °F 52 °F 76 °F (2008)
Min Temperature 32 °F 24 °F 17 °F (2000)
Degree Days  
Heating Degree Days 15 27  
Month to date heating degree days 32 53  
Since 1 July heating degree days 918 944  
Cooling Degree Days 0 0  
Month to date cooling degree days 0 0  
Year to date cooling degree days 1846 1482  
Moisture  
Dew Point 29 °F    
Average Humidity 49    
Maximum Humidity 75    
Minimum Humidity 22    
Precipitation  
Precipitation 0.00 in 0.04 in 0.00 in (2015)
Month to date precipitation 0.00 0.09  
Year to date precipitation 15.00 18.75  
Snow  
Snow 0.00 in - - ()
Month to date snowfall 0.0  
Since 1 July snowfall 3.7  
Snow Depth 0.00 in    
Sea Level Pressure  
Sea Level Pressure 29.69 in    
Wind  
Wind Speed 9 mph (SW)    
Max Wind Speed 16 mph    
Max Gust Speed 22 mph    
Visibility 10 miles    
Events      
T = Trace of Precipitation, MM = Missing Value Source: NWS Daily Summary

Daily Weather History Graph

Daily Weather History Graph

Search for Another Location

Airport or City:

Trip Planner

Search our weather history database for the weather conditions in past years. The results will help you decide how hot, cold, wet, or windy it might be!

Date:

Astronomy

Dec. 02, 2013 Rise Set
Actual Time 7:41 AM CST 5:30 PM CST
Civil Twilight 7:12 AM CST 5:58 PM CST
Nautical Twilight 6:40 AM CST 6:30 PM CST
Astronomical Twilight 6:09 AM CST 7:01 PM CST
Moon 7:09 AM CST (12/2) 5:34 PM CST (12/2)
Length of Visible Light 10h 45m
Length of Day
9h 49m
Waning Crescent, 0% of the Moon is Illuminated
Dec 2
Waning Crescent
Dec 2
New
Dec 9
First Quarter
Dec 17
Full
Dec 25
Last Quarter

Hourly Weather History & Observations

Time (CST) Temp. Windchill Dew Point Humidity Pressure Visibility Wind Dir Wind Speed Gust Speed Precip Events Conditions
12:53 AM 33.1 °F 28.7 °F 26.1 °F 75% 29.83 in 10.0 mi SSW 4.6 mph - N/A   Clear
1:53 AM 36.0 °F 31.1 °F 27.0 °F 70% 29.80 in 10.0 mi West 5.8 mph - N/A   Clear
2:53 AM 39.0 °F 32.3 °F 27.0 °F 62% 29.78 in 10.0 mi West 10.4 mph - N/A   Clear
3:53 AM 39.0 °F 32.3 °F 26.1 °F 60% 29.77 in 10.0 mi West 10.4 mph - N/A   Clear
4:53 AM 37.0 °F 31.0 °F 26.1 °F 65% 29.77 in 10.0 mi West 8.1 mph - N/A   Clear
5:53 AM 39.9 °F 34.5 °F 27.0 °F 60% 29.78 in 10.0 mi NW 8.1 mph - N/A   Clear
6:53 AM 42.1 °F 35.7 °F 27.0 °F 55% 29.80 in 10.0 mi NW 11.5 mph - N/A   Clear
7:53 AM 45.0 °F 39.7 °F 27.0 °F 49% 29.79 in 10.0 mi NW 10.4 mph - N/A   Clear
8:53 AM 46.0 °F 41.4 °F 28.9 °F 51% 29.79 in 10.0 mi WNW 9.2 mph - N/A   Clear
9:53 AM 51.1 °F - 30.9 °F 46% 29.79 in 10.0 mi West 4.6 mph - N/A   Clear
10:53 AM 59.0 °F - 30.9 °F 35% 29.77 in 10.0 mi West 10.4 mph - N/A   Clear
11:53 AM 63.0 °F - 30.0 °F 29% 29.73 in 10.0 mi West 5.8 mph - N/A   Clear
12:53 PM 64.9 °F - 27.0 °F 24% 29.69 in 10.0 mi Variable 4.6 mph - N/A   Clear
1:53 PM 64.9 °F - 27.0 °F 24% 29.65 in 10.0 mi South 5.8 mph - N/A   Clear
2:53 PM 66.0 °F - 27.0 °F 23% 29.60 in 10.0 mi South 10.4 mph - N/A   Clear
3:53 PM 64.0 °F - 28.9 °F 27% 29.62 in 10.0 mi South 8.1 mph - N/A   Clear
4:53 PM 62.1 °F - 30.9 °F 31% 29.62 in 10.0 mi South 9.2 mph - N/A   Clear
5:53 PM 55.0 °F - 33.1 °F 43% 29.62 in 10.0 mi SSE 10.4 mph - N/A   Clear
6:53 PM 53.1 °F - 30.9 °F 43% 29.60 in 10.0 mi South 10.4 mph - N/A   Clear
7:53 PM 52.0 °F - 30.9 °F 45% 29.58 in 10.0 mi South 11.5 mph - N/A   Clear
8:53 PM 50.0 °F - 30.0 °F 46% 29.58 in 10.0 mi South 11.5 mph - N/A   Clear
9:53 PM 48.9 °F - 30.0 °F 48% 29.56 in 10.0 mi South 11.5 mph - N/A   Clear
10:53 PM 45.0 °F 39.3 °F 30.0 °F 56% 29.54 in 10.0 mi South 11.5 mph - N/A   Clear
11:53 PM 41.0 °F 36.4 °F 30.0 °F 65% 29.52 in 10.0 mi SSW 6.9 mph - N/A   Clear